This is the latest recevied weather packets stored in our database for station/object N3SW-13. If no packets are shown the sender has not sent any weather packets the latest 10 day(s).
| Time | Temp. | Humidity | Pressure | Rain* | Wind** | Luminosity | Snow |
|---|---|---|---|---|---|---|---|
| 1777588208 | 17.22° C | 37% | 1010.9 hPa | 0 mm | - | - | - |
| 1777579255 | 18.89° C | 42% | 1010 hPa | 0 mm | - | - | - |
| 1777574749 | 18.89° C | 41% | 1009.9 hPa | 0 mm | - | - | - |
| 1777566633 | 16.67° C | 56% | 1010.5 hPa | 0 mm | - | - | - |
| 1777563923 | 15° C | 62% | 1010.9 hPa | 0 mm | - | - | - |
| 1777558512 | 13.89° C | 64% | 1011.1 hPa | 0 mm | - | - | - |
| 1777537845 | 12.22° C | 83% | 1009 hPa | 0 mm | - | - | - |
| 1777529733 | 12.22° C | 85% | 1009.6 hPa | 0 mm | - | - | - |
| 1777521617 | 13.33° C | 91% | 1009.6 hPa | 0 mm | - | - | - |
| 1777518921 | 13.33° C | 94% | 1009.7 hPa | 0 mm | - | - | - |
| 1777516223 | 13.89° C | 96% | 1009.4 hPa | 0 mm | - | - | - |
| 1777514413 | 13.89° C | 96% | 1009.5 hPa | 0 mm | - | - | - |
| 1777513512 | 14.44° C | 96% | 1009.1 hPa | 0 mm | - | - | - |
| 1777512613 | 14.44° C | 96% | 1009.2 hPa | 0 mm | - | - | - |
| 1777507209 | 16.11° C | 97% | 1007.6 hPa | 1.78 mm | - | - | - |
| 1777506308 | 16.11° C | 97% | 1007.3 hPa | 1.78 mm | - | - | - |
| 1777498261 | 16.11° C | 97% | 1006.8 hPa | 0 mm | - | - | - |
| 1777497358 | 15.56° C | 97% | 1007 hPa | 0 mm | - | - | - |
| 1777491951 | 15.56° C | 96% | 1008.2 hPa | 1.27 mm | - | - | - |
| 1777490150 | 15.56° C | 96% | 1008.8 hPa | 1.27 mm | - | - | - |
| 1777488357 | 15° C | 96% | 1009.1 hPa | 0 mm | - | - | - |
| 1777486542 | 15° C | 96% | 1009.7 hPa | 0 mm | - | - | - |
| 1777485636 | 15° C | 96% | 1010 hPa | 0 mm | - | - | - |
| 1777481132 | 14.44° C | 96% | 1011.1 hPa | 0.25 mm | - | - | - |
| 1777480225 | 14.44° C | 96% | 1011.2 hPa | 0.25 mm | - | - | - |
* Rain latest hour (hover to see other rain measurements)
** Current wind speed in m/s (hover to see current wind gust speed)